Date String (YYYY-MM-DD hh:mm:ss) UTC,Instrument flags,Ambient pressure (hPa),Sample flow (lpm),Bypass flow (lpm),Sample temperature (°C),Ambient temperature (°C),ASC tube jacket temperature (°C),LED temperature (°C),Box temperature (°C),Sample RH (%),Span deviation,Mass concentration (μg/m³),Mass concentration (μg/m³),Mass concentration (μg/m³)
DateTimeUTC,F1_M11,P_M11,Q1_M11,Q2_M11,T1_M11,T2_M11,T3_M11,T4_M11,T5_M11,U1_M11,ZSPAN_M11,X0_M11,X2_M11,X1_M11
2022-04-01 04:00:00,,0816.2,4.98,0.00,28.8,27.9,00.0,37.8,30.5,07.2,0000.0,0007.15,0002.90,0001.39
2022-04-01 04:01:00,,0816.1,5.00,0.00,28.8,27.9,00.0,37.8,30.5,07.1,0000.0,0007.32,0002.99,0001.41
2022-04-01 04:02:00,,0816.1,5.02,0.00,28.8,27.9,00.0,37.8,30.6,07.1,0000.0,0007.27,0002.97,0001.39
2022-04-01 04:03:00,,0816.2,5.00,0.00,28.8,27.9,00.0,37.8,30.5,07.1,0000.0,0007.34,0003.00,0001.39
2022-04-01 04:04:00,,0816.1,5.00,0.00,28.8,27.9,00.0,37.8,30.5,07.1,0000.0,0007.48,0003.07,0001.40
2022-04-01 04:05:00,,0816.2,5.01,0.00,28.8,27.9,00.0,37.8,30.5,07.2,0000.0,0007.48,0003.09,0001.39
2022-04-01 04:06:00,,0816.2,4.98,0.00,28.8,27.9,00.0,37.8,30.6,07.0,0000.0,0007.68,0003.07,0001.40
2022-04-01 04:07:00,,0816.2,5.02,0.00,28.8,27.9,00.0,37.8,30.5,07.0,0000.0,0007.98,0003.01,0001.41
2022-04-01 04:08:00,,0816.2,4.99,0.00,28.8,27.9,00.0,37.8,30.5,07.0,0000.0,0007.93,0002.97,0001.40
2022-04-01 04:09:00,,0816.3,4.98,0.00,28.8,27.9,00.0,37.8,30.5,07.1,0000.0,0007.87,0002.95,0001.41
2022-04-01 04:10:00,,0816.3,5.01,0.00,28.7,27.8,00.0,37.8,30.4,07.1,0000.0,0008.22,0003.07,0001.44
2022-04-01 04:11:00,,0816.4,5.01,0.00,28.7,27.8,00.0,37.8,30.4,07.1,0000.0,0008.28,0003.05,0001.44
2022-04-01 04:12:00,,0816.4,4.99,0.00,28.6,27.7,00.0,37.8,30.3,07.1,0000.0,0008.30,0003.05,0001.42
2022-04-01 04:13:00,,0816.4,5.01,0.00,28.6,27.7,00.0,37.7,30.2,07.1,0000.0,0008.34,0003.09,0001.45
2022-04-01 04:14:00,,0816.3,4.99,0.00,28.6,27.6,00.0,37.7,30.2,07.2,0000.0,0008.36,0003.10,0001.47
2022-04-01 04:15:00,,0816.4,5.00,0.00,28.5,27.6,00.0,37.7,30.2,07.2,0000.0,0008.20,0003.02,0001.48
2022-04-01 04:16:00,,0816.3,5.02,0.00,28.5,27.6,00.0,37.7,30.2,07.1,0000.0,0007.77,0002.96,0001.48
2022-04-01 04:17:00,,0816.4,4.99,0.00,28.5,27.6,00.0,37.7,30.2,07.2,0000.0,0007.66,0002.98,0001.48
2022-04-01 04:18:00,,0816.3,5.00,0.00,28.5,27.6,00.0,37.6,30.2,07.2,0000.0,0007.40,0003.02,0001.48
2022-04-01 04:19:00,,0816.3,5.02,0.00,28.5,27.6,00.0,37.6,30.1,07.3,0000.0,0007.54,0003.09,0001.48
2022-04-01 04:20:00,,0816.3,4.99,0.00,28.5,27.6,00.0,37.6,30.1,07.4,0000.0,0007.68,0003.14,0001.48
2022-04-01 04:21:00,,0816.4,5.00,0.00,28.5,27.6,00.0,37.6,30.1,07.4,0000.0,0007.80,0003.13,0001.46
2022-04-01 04:22:00,,0816.3,5.01,0.00,28.5,27.6,00.0,37.6,30.1,07.2,0000.0,0007.64,0003.08,0001.45
2022-04-01 04:23:00,,0816.3,5.00,0.00,28.5,27.6,00.0,37.6,30.1,07.3,0000.0,0007.54,0003.04,0001.45
2022-04-01 04:24:00,,0816.3,4.99,0.00,28.4,27.6,00.0,37.6,30.1,07.3,0000.0,0007.50,0003.05,0001.43
2022-04-01 04:25:00,,0816.3,5.02,0.00,28.4,27.5,00.0,37.5,30.2,07.4,0000.0,0007.53,0003.09,0001.42
2022-04-01 04:26:00,,0816.4,4.98,0.00,28.4,27.5,00.0,37.5,30.2,07.5,0000.0,0007.61,0003.13,0001.40
2022-04-01 04:27:00,,0816.4,5.00,0.00,28.4,27.6,00.0,37.5,30.2,07.5,0000.0,0007.64,0003.14,0001.40
2022-04-01 04:28:00,,0816.3,5.01,0.00,28.5,27.6,00.0,37.5,30.2,07.5,0000.0,0007.30,0003.12,0001.39
2022-04-01 04:29:00,,0816.3,5.00,0.00,28.5,27.6,00.0,37.5,30.2,07.6,0000.0,0007.17,0003.13,0001.38
2022-04-01 04:30:00,,0816.3,4.99,0.00,28.5,27.6,00.0,37.5,30.3,07.8,0000.0,0007.04,0003.12,0001.39
2022-04-01 04:31:00,,0816.2,4.99,0.00,28.5,27.7,00.0,37.5,30.3,08.0,0000.0,0007.06,0003.13,0001.40
2022-04-01 04:32:00,,0816.2,5.01,0.00,28.5,27.7,00.0,37.5,30.3,08.0,0000.0,0006.82,0003.14,0001.42
2022-04-01 04:33:00,,0816.2,5.00,0.00,28.5,27.7,00.0,37.5,30.3,08.1,0000.0,0007.03,0003.21,0001.44
2022-04-01 04:34:00,,0816.2,4.98,0.00,28.5,27.7,00.0,37.5,30.2,08.2,0000.0,0007.12,0003.21,0001.46
2022-04-01 04:35:00,,0816.2,5.01,0.00,28.5,27.6,00.0,37.5,30.2,08.1,0000.0,0007.28,0003.22,0001.47
2022-04-01 04:36:00,,0816.1,5.00,0.00,28.5,27.6,00.0,37.5,30.2,08.0,0000.0,0007.61,0003.19,0001.48
2022-04-01 04:37:00,,0816.1,4.99,0.00,28.5,27.6,00.0,37.5,30.2,08.1,0000.0,0008.11,0003.18,0001.50
2022-04-01 04:38:00,,0816.1,5.00,0.00,28.5,27.6,00.0,37.5,30.2,08.1,0000.0,0008.16,0003.21,0001.52
2022-04-01 04:39:00,,0816.2,5.01,0.00,28.5,27.6,00.0,37.5,30.2,08.2,0000.0,0008.26,0003.26,0001.55
2022-04-01 04:40:00,,0816.1,4.98,0.00,28.5,27.6,00.0,37.5,30.2,08.3,0000.0,0008.26,0003.28,0001.58
2022-04-01 04:41:00,,0816.1,5.01,0.00,28.5,27.6,00.0,37.5,30.2,08.3,0000.0,0008.36,0003.32,0001.58
2022-04-01 04:42:00,,0816.2,5.00,0.00,28.5,27.6,00.0,37.5,30.2,08.4,0000.0,0008.30,0003.29,0001.57
2022-04-01 04:43:00,,0816.2,5.00,0.00,28.5,27.5,00.0,37.5,30.1,08.3,0000.0,0008.24,0003.27,0001.58
2022-04-01 04:44:00,,0816.2,5.01,0.00,28.5,27.5,00.0,37.5,30.2,08.4,0000.0,0008.22,0003.26,0001.58
2022-04-01 04:45:00,,0816.2,4.99,0.00,28.5,27.5,00.0,37.5,30.2,08.5,0000.0,0008.28,0003.27,0001.58
2022-04-01 04:46:00,,0816.2,5.02,0.00,28.4,27.5,00.0,37.5,30.1,08.6,0000.0,0008.30,0003.30,0001.59
2022-04-01 04:47:00,,0816.2,4.99,0.00,28.4,27.5,00.0,37.5,30.1,08.6,0000.0,0008.16,0003.33,0001.60
2022-04-01 04:48:00,,0816.1,5.00,0.00,28.4,27.5,00.0,37.5,30.2,08.7,0000.0,0007.46,0003.31,0001.58
2022-04-01 04:49:00,,0816.1,4.99,0.00,28.4,27.5,00.0,37.5,30.2,08.7,0000.0,0007.46,0003.30,0001.56
2022-04-01 04:50:00,,0816.1,4.98,0.00,28.4,27.5,00.0,37.5,30.1,08.8,0000.0,0007.69,0003.30,0001.55
2022-04-01 04:51:00,,0816.1,5.01,0.00,28.4,27.5,00.0,37.4,30.1,09.0,0000.0,0007.58,0003.28,0001.55
2022-04-01 04:52:00,,0816.1,4.99,0.00,28.4,27.5,00.0,37.5,30.1,09.0,0000.0,0007.49,0003.24,0001.55
2022-04-01 04:53:00,,0816.1,4.98,0.00,28.4,27.5,00.0,37.4,30.1,09.1,0000.0,0008.18,0003.23,0001.56
2022-04-01 04:54:00,,0816.1,5.00,0.00,28.4,27.5,00.0,37.4,30.1,09.1,0000.0,0008.57,0003.25,0001.56
2022-04-01 04:55:00,,0816.1,5.01,0.00,28.4,27.4,00.0,37.4,30.1,09.1,0000.0,0008.75,0003.33,0001.57
2022-04-01 04:56:00,,0816.1,5.01,0.00,28.4,27.4,00.0,37.4,30.1,09.1,0000.0,0008.74,0003.38,0001.59
2022-04-01 04:57:00,,0816.1,4.99,0.00,28.4,27.4,00.0,37.4,30.1,09.1,0000.0,0008.94,0003.37,0001.58
2022-04-01 04:58:00,,0816.1,4.99,0.00,28.4,27.4,00.0,37.4,30.1,09.2,0000.0,0008.98,0003.36,0001.56
2022-04-01 04:59:00,,0816.5,5.00,0.00,28.4,27.4,00.0,37.4,30.0,09.2,0000.0,0009.02,0003.37,0001.57
